Weather in Kashirskoe

Russia / Voronezh Oblast     51°24′31″N   39°35′14″E
temp.,
°C
wind,
m/s
gust,
m/s
humid.,
%
clouds,
%
prec.,
mm/h
press.,
hPa
HPBL,
m
31 july, sat
sat3100:00+21nw35806 0.0 100776
03:00+19wnw33840 0.0 100843
06:00+19wnw35850 0.0 1009135
09:00+25wnw34560 0.0 1010675
12:00+29wnw343713 0.0 10102136
15:00+31wnw44301 0.0 10092516
18:00+30wnw34343 0.0 10091980
21:00+24nw22450 0.0 101111
1 august, sun
sun100:00+22s11470 0.0 101111
03:00+21sw11530 0.0 101311
06:00+21s11562 0.0 101311
09:00+28s22385 0.0 1013529
12:00+33ssw22280 0.0 10132673
15:00+34sse132427 0.0 10123235
18:00+32sse542773 0.0 10111309
21:00+26sse46410 0.0 101274
2 august, mon
mon200:00+24se354737 0.0 101267
03:00+22sse37610 0.0 1012116
06:00+23s24590 0.0 101275
09:00+30s45395 0.0 1011684
12:00+35ssw572563 0.0 10103074
15:00+36sw782248 0.0 10083435
18:00+32sw472994 0.2 1007580
21:00+25nw5104971 0.2 1008213
3 august, tue
tue300:00+23se3459100 0.0 100753
03:00+22nw4106492 0.3 1009285
06:00+20se3576100 0.2 1008117
09:00+26w4655100 0.2 1008791
12:00+29w584192 0.0 10081503
15:00+30wsw7934100 0.0 10082417
18:00+26wnw88440 0.0 10101377
21:00+21nw510510 0.0 1012414
4 august, wed
wed400:00+17nnw23670 0.0 101440
03:00+16wnw22730 0.0 101521
06:00+17wnw24730 0.0 101695
09:00+23wnw33455 0.0 1017981
12:00+26wnw353631 0.0 10172334
15:00+29wnw55265 0.0 10153039
18:00+28wnw442826 0.0 10152211
21:00+21nnw33385 0.0 101640